Regional Weather Roundup
Issued by NWS

Home | Current Version | Previous Version | Text Only | Print | Product List | Glossary On
Versions: 1 2 3 4 5 6 7 8 9 10 11 12 13 14 15 16 17 18 19 20 21 22 23 24 25 26 27 28 29 30 31 32 33 34 35 36 37 38 39 40 41 42 43 44 45 46 47 48 49 50
000
ASUS42 KKEY 261510
RWRKEY

FLORIDA REGIONAL WEATHER ROUNDUP FOR THE FLORIDA KEYS
NATIONAL WEATHER SERVICE KEY WEST FLORIDA
1100 AM EDT WED JUL 26 2017

...SOUTH FLORIDA AND THE KEYS...

CITY           SKY/WX    TMP DP  RH WIND       PRES   REMARKS
FORT MYERS     MOSUNNY   89  79  72 NE5       30.10S HX 104
SW REGIONAL AP PTSUNNY   87  77  72 E3        30.11R HX  99
NAPLES         PTSUNNY   89  77  67 NW3       30.11R HX 101
MIAMI          CLOUDY    89  75  63 SE5       30.10S HX  99
WEST KENDALL   MOSUNNY   89  76  65 CALM      30.10S HX 100
HOMESTEAD      MOSUNNY   89  80  75 NE9       30.09S HX 105
MARATHON       SUNNY     91  78  65 SE7       30.09R HX 106
BOCA CHICA NAS CLOUDY    86  80  82 NE5       30.09R HX 101
KEY WEST INTL  CLOUDY    87  77  72 NE6       30.09R HX  99

...INTERNATIONAL WEATHER...

CITY           SKY/WX    TMP DP  RH WIND       PRES   REMARKS
NASSAU BAHAMAS MOSUNNY   90  75  62 NE8       30.10S HX 100
CANCUN MEXICO  MOSUNNY   88  77  70 E7        30.06S HX 100
COZUMEL MEXICO MOSUNNY   88  77  70 NE12      30.03S HX 100

ADJACENT COASTAL WATERS...

STATION/POSITION TIME  SKY/WX   TEMP    WIND        PRES    WAVE
                                AIR SEA DIR/SP/G            HT/PER
                 (UTC)          (F)     (DEG/KT/KT) (MB)    (FT/S)
PULASKI SHOAL LI 1500            86      40/ 10/ 11 1019.5R
SAND KEY         1450            85                 1019.4R
LONG KEY         1300            86     160/  6     1018.6
MOLASSES REEF    1300            85 86  140/  7/  8 1019.1R
FOWEY ROCKS      1400            85 86  140/  6/  7 1019.9R
Buoy 42097       1430               87                N/A     1/ 3

$$



USA.gov is the U.S. government's official web portal to all federal, state and local government web resources and services.